[[{"header":{"parameterUnit":"m.s-1","parameterCategory":1,"la1":30.2991,"la2":30.254,"lo1":-89.0895,"lo2":-89.0444,"dy":0.0017,"dx":0.0017,"nx":28,"ny":28,"refTime":"2023-10-24T03:00:00:Z","depth":0,"parameterNumber":2,"parameterNumberName":"U-component_of_WINDS"},"data":[0,0,0,0,0,0,0,0,0,0,0,0,0,0,0,0,0,0,0,0,0,0,0,0,0,0,0,0,0,0,0,0,0,0,0,0,0,0,0,0,0,0,0,0,0,0,0,0,0,0,0,0,0,0,0,0,0,0,-5.8924,-5.8925,0,-5.9017,-5.9018,-5.9019,-5.892,-5.8916,-5.8912,-5.8908,-5.9008,-5.9014,-5.9021,0,0,0,0,0,0,0,0,0,0,0,0,0,-5.8664,-5.8669,-5.8924,-5.8925,-5.8926,-5.9017,-5.9018,-5.9019,-5.892,-5.8916,-5.8911,-5.8907,-5.9006,-5.9014,-5.9021,0,0,0,0,0,0,0,0,0,0,0,0,0,-5.8769,-5.8671,-5.8924,-5.8887,-5.8885,-5.9017,-5.9018,-5.902,-5.8921,-5.8915,-5.891,-5.8904,-5.9004,-5.9013,-5.9022,-5.9195,0,0,-5.9051,-5.9055,0,0,0,0,0,0,0,0,-5.8763,-5.8779,-5.8892,-5.889,-5.8888,-5.8951,-5.8963,-5.9079,-5.8923,-5.8908,-5.8908,-5.8902,-5.8994,-5.9004,-5.9034,-5.92,-5.9204,-5.9052,-5.9057,-5.9061,-5.9064,0,0,0,0,0,0,0,-5.8756,-5.8774,-5.8961,-5.8893,-5.8891,-5.8868,-5.8877,-5.8985,-5.8982,-5.8909,-5.8902,-5.8914,-5.8992,-5.9026,-5.9036,-5.9206,-5.9051,-5.906,-5.9066,-5.9069,-5.9519,-5.9525,0,0,0,0,0,0,-5.8752,-5.8769,-5.8958,-5.8964,-5.881,-5.8877,-5.8887,-5.8936,-5.8981,-5.8982,-5.8919,-5.8909,-5.9012,-5.9025,-5.9039,-5.9245,-5.9061,-5.907,-5.9076,-5.9513,-5.952,-5.9527,0,0,0,0,0,0,-5.8747,-5.877,-5.8954,-5.8864,-5.8886,-5.8888,-5.8944,-5.8941,-5.8974,-5.8988,-5.8988,-5.8953,-5.9008,-5.9026,-5.9157,-5.9247,-5.9074,-5.9083,-5.9505,-5.9515,-5.9524,-5.9658,0,0,0,0,0,0,-5.874,-5.8769,-5.8834,-5.8867,-5.8891,-5.907,-5.895,-5.8947,-5.899,-5.8978,-5.902,-5.9022,-5.9005,-5.9144,-5.9166,-5.9257,-5.909,-5.9497,-5.951,-5.9521,-5.9645,-5.9671,-5.9692,0,0,0,0,0,-5.8731,-5.8869,-5.8837,-5.8861,-5.8972,-5.9075,-5.9089,-5.9066,-5.8998,-5.9064,-5.9073,-5.902,-5.9233,-5.9158,-5.9183,-5.9277,-5.9492,-5.9506,-5.952,-5.9635,-5.9666,-5.9692,0,0,0,0,0,0,-5.8848,-5.8872,-5.8838,-5.899,-5.9031,-5.9058,-5.914,-5.9099,-5.9162,-5.9148,-5.9118,-5.9128,-5.9268,-5.9285,-5.9201,-5.9447,-5.9352,-5.9372,-5.943,-5.946,-5.9483,-5.9476,-5.9098,0,0,0,0,0,-5.8891,-5.8971,-5.8988,-5.9121,-5.9143,-5.9138,-5.9182,-5.9161,-5.9203,-5.922,-5.9238,-5.9283,-5.9359,-5.9411,-5.9482,-5.9648,-5.9656,-5.9725,-5.9748,-5.9768,-5.9785,-5.9875,-5.9906,-5.9574,-5.9574,-5.9574,0,0,-5.8981,-5.9004,-5.9057,-5.9145,-5.9174,-5.9259,-5.9154,-5.9248,-5.9311,-5.9235,-5.9359,-5.9375,-5.9422,-5.9571,-5.9638,-5.9591,-5.9879,-5.9786,-5.9801,-5.9808,-5.9893,-5.9924,-5.9952,-5.9584,-5.9582,-5.9581,0,0,-5.9188,-5.9214,-5.9327,-5.9358,-5.9404,-5.94,-5.9427,-5.9461,-5.9467,-5.9592,-5.9536,-5.9612,-5.9745,-5.978,-5.9816,-6.0039,-5.9993,-6.0063,-6.0186,-6.0273,-6.03,-6.0323,-6.0402,-6.0431,-6.008,-6.0081,-6.0081,0,-5.9295,-5.942,-5.9391,-5.9489,-5.953,-5.9463,-5.9578,-5.9611,-5.9678,-5.9708,-5.9654,-5.9819,-5.9846,-6.0003,-6.0057,-6.0088,-6.012,-6.0058,-6.0298,-6.0321,-6.0342,-6.0417,-6.0448,-6.0089,-6.0088,-6.0087,-6.0086,0,-5.9549,-5.9636,-5.9722,-5.9787,-5.9838,-5.9944,-5.9933,-5.9988,-5.9962,-5.9965,-6.0093,-6.0123,-6.0199,-6.0235,-6.0212,-6.039,-6.0359,-6.0302,-6.0205,-6.0382,-6.0453,-6.0481,-6.0101,-6.0098,-6.0095,-6.0093,0,0,-5.9832,-5.988,-5.9912,-5.9941,-5.9986,-6.0054,-6.0158,-6.0231,-6.0279,-6.0328,-6.0415,-6.0529,-6.0477,-6.0518,-6.0498,-6.0575,-6.075,-6.0508,-6.0509,-6.0552,-6.0948,-6.0991,-6.1024,-6.072,-6.0725,-6.0729,-6.0944,0,-6.0041,-6.0219,-6.0197,-6.0368,-6.0449,-6.0388,-6.0478,-6.0517,-6.0522,-6.0593,-6.0599,-6.068,-6.0605,-6.0629,-6.0703,-6.0713,-6.0829,-6.0697,-6.0802,-6.0806,-6.0792,-6.1061,-6.1106,-6.1307,-6.0972,-6.0976,-6.098,0,-6.0308,-6.0365,-6.0545,-6.0577,-6.0611,-6.0692,-6.0758,-6.0826,-6.0869,-6.0868,-6.0913,-6.088,-6.0986,-6.0887,-6.1033,-6.0944,-6.0986,-6.0998,-6.1005,-6.1014,-6.0903,-6.1078,-6.1371,-6.1401,-6.1023,-6.1019,-6.1016,0,-6.0497,-6.0619,-6.0742,-6.0768,-6.081,-6.0869,-6.089,-6.0927,-6.0972,-6.1031,-6.106,-6.1131,-6.117,-6.1226,-6.1213,-6.1142,-6.1363,-6.1263,-6.1366,-6.1366,-6.1415,-6.1412,-6.1719,-6.1442,-6.1442,-6.1441,-6.144,0,-6.0732,-6.0844,-6.0827,-6.0903,-6.1027,-6.1001,-6.1125,-6.1138,-6.1172,-6.125,-6.1202,-6.1277,-6.1256,-6.133,-6.1321,-6.1444,-6.1462,-6.1465,-6.1461,-6.1469,-6.1469,-6.1496,-6.1482,-6.1449,-6.1447,-6.1446,-6.1444,0,-6.0964,-6.0956,-6.1086,-6.1115,-6.1125,-6.1216,-6.1241,-6.1313,-6.1314,-6.1414,-6.1436,-6.1439,-6.1525,-6.1517,-6.1614,-6.1608,-6.176,-6.174,-6.1745,-6.174,-6.1843,-6.1834,-6.2179,-6.2223,-6.1918,-6.192,-6.1923,0,-6.1114,-6.1199,-6.1236,-6.1285,-6.1309,-6.1387,-6.1433,-6.1411,-6.1462,-6.1518,-6.1584,-6.1664,-6.1727,-6.1867,-6.1878,-6.1952,-6.1933,-6.2049,-6.1944,-6.195,-6.1935,-6.193,-6.1939,-6.207,-6.2073,-6.2076,-6.2078,0,-6.1382,-6.1374,-6.1441,-6.1509,-6.1565,-6.1617,-6.1664,-6.1707,-6.169,-6.1749,-6.1835,-6.1884,-6.1982,-6.2063,-6.2133,-6.2155,-6.2116,-6.2111,-6.2139,-6.2148,-6.2147,-6.2149,-6.1801,-6.2104,-6.2101,-6.2099,-6.2098,-6.2097,-6.1577,-6.165,-6.1688,-6.1765,-6.1798,-6.1843,-6.1912,-6.1922,-6.1993,-6.2069,-6.2053,-6.215,-6.2192,-6.2281,-6.2311,-6.2388,-6.2346,-6.2386,-6.2396,-6.2406,-6.2418,-6.2135,-6.24,-6.24,-6.2399,-6.2398,-6.2398,0,-6.1842,-6.1864,-6.1935,-6.2002,-6.2063,-6.2018,-6.2068,-6.2123,-6.2208,-6.225,-6.2313,-6.2412,-6.2491,-6.2509,-6.2584,-6.2642,-6.2626,-6.2663,-6.2658,-6.2665,-6.2451,-6.2419,-6.2675,-6.2675,-6.2675,-6.2675,-6.2675,-6.2675,-6.1988,-6.2108,-6.2105,-6.2242,-6.2262,-6.2355,-6.2388,-6.243,-6.2463,-6.2576,-6.264,-6.2651,-6.2684,-6.2762,-6.2832,-6.2836,-6.2866,-6.2911,-6.2907,-6.2707,-6.268,-6.2653,-6.2623,-6.2917,-6.2918,-6.3114,-6.3116,-6.3117]},{"header":{"parameterUnit":"m.s-1","parameterCategory":1,"la1":30.2991,"la2":30.254,"lo1":-89.0895,"lo2":-89.0444,"dy":0.0017,"dx":0.0017,"nx":28,"ny":28,"refTime":"2023-10-24T03:00:00:Z","depth":0,"parameterNumber":3,"parameterNumberName":"V-component_of_WINDS"},"data":[0,0,0,0,0,0,0,0,0,0,0,0,0,0,0,0,0,0,0,0,0,0,0,0,0,0,0,0,0,0,0,0,0,0,0,0,0,0,0,0,0,0,0,0,0,0,0,0,0,0,0,0,0,0,0,0,0,0,-0.0703,-0.0702,0,-0.0652,-0.0652,-0.0651,-0.0635,-0.0635,-0.0635,-0.0635,-0.0585,-0.0584,-0.0582,0,0,0,0,0,0,0,0,0,0,0,0,0,-0.0784,-0.0782,-0.0703,-0.0702,-0.0701,-0.0652,-0.0652,-0.0651,-0.0635,-0.0635,-0.0635,-0.0635,-0.0586,-0.0584,-0.0582,0,0,0,0,0,0,0,0,0,0,0,0,0,-0.0742,-0.0782,-0.0703,-0.0687,-0.0685,-0.0652,-0.0652,-0.0651,-0.0635,-0.0635,-0.0635,-0.0636,-0.0586,-0.0584,-0.0582,-0.0561,0,0,-0.0575,-0.0574,0,0,0,0,0,0,0,0,-0.0745,-0.0739,-0.069,-0.0688,-0.0686,-0.065,-0.0662,-0.0621,-0.0634,-0.0654,-0.0635,-0.0636,-0.0607,-0.0603,-0.0592,-0.0558,-0.0556,-0.0574,-0.0573,-0.0572,-0.0571,0,0,0,0,0,0,0,-0.0748,-0.0741,-0.0683,-0.069,-0.0687,-0.0682,-0.0677,-0.0654,-0.0629,-0.0652,-0.0651,-0.0645,-0.0605,-0.0595,-0.0591,-0.0556,-0.0574,-0.0572,-0.0571,-0.057,-0.0498,-0.0497,0,0,0,0,0,0,-0.0753,-0.0744,-0.0684,-0.0681,-0.0717,-0.0681,-0.0675,-0.0661,-0.0629,-0.0625,-0.0645,-0.0645,-0.0598,-0.0594,-0.0589,-0.056,-0.0572,-0.057,-0.0569,-0.0498,-0.0497,-0.0497,0,0,0,0,0,0,-0.0755,-0.0748,-0.0686,-0.0712,-0.0704,-0.0679,-0.0664,-0.066,-0.0649,-0.0624,-0.0619,-0.0638,-0.0599,-0.0593,-0.0567,-0.0558,-0.0569,-0.0567,-0.0499,-0.0498,-0.0497,-0.0502,0,0,0,0,0,0,-0.0757,-0.0749,-0.0741,-0.0712,-0.0703,-0.0665,-0.0664,-0.0659,-0.0645,-0.0644,-0.0616,-0.0612,-0.0598,-0.057,-0.0565,-0.0555,-0.0565,-0.0499,-0.0498,-0.0497,-0.0503,-0.0502,-0.0501,0,0,0,0,0,-0.076,-0.0746,-0.0741,-0.0734,-0.0693,-0.0665,-0.0659,-0.0643,-0.0645,-0.0636,-0.0619,-0.0613,-0.056,-0.0568,-0.0561,-0.0551,-0.05,-0.0499,-0.0497,-0.0503,-0.0502,-0.0501,0,0,0,0,0,0,-0.0776,-0.0742,-0.0736,-0.0712,-0.0691,-0.0662,-0.0651,-0.0643,-0.0622,-0.0622,-0.0604,-0.0598,-0.0573,-0.0559,-0.0569,-0.0527,-0.053,-0.0527,-0.0536,-0.0535,-0.0534,-0.0537,-0.0563,0,0,0,0,0,-0.0776,-0.0757,-0.0728,-0.0709,-0.0699,-0.0677,-0.0664,-0.0653,-0.0631,-0.0623,-0.0604,-0.0583,-0.0561,-0.0548,-0.0527,-0.0501,-0.0493,-0.049,-0.0489,-0.0489,-0.0486,-0.0468,-0.0465,-0.0493,-0.0493,-0.0493,0,0,-0.0777,-0.0756,-0.0745,-0.0712,-0.0695,-0.0673,-0.067,-0.0649,-0.0633,-0.062,-0.0593,-0.0579,-0.0554,-0.0527,-0.0515,-0.0515,-0.0476,-0.0487,-0.0487,-0.0484,-0.0466,-0.0464,-0.0461,-0.0492,-0.0492,-0.0492,0,0,-0.0768,-0.0751,-0.0732,-0.0714,-0.0687,-0.0672,-0.0667,-0.0638,-0.0628,-0.0601,-0.0589,-0.057,-0.0534,-0.0515,-0.0501,-0.0481,-0.0474,-0.0475,-0.0469,-0.0452,-0.045,-0.0447,-0.0437,-0.0434,-0.0473,-0.0473,-0.0473,0,-0.0773,-0.0741,-0.0724,-0.0702,-0.0686,-0.0672,-0.0651,-0.0635,-0.0603,-0.0592,-0.0593,-0.0544,-0.0527,-0.0494,-0.0489,-0.0479,-0.0471,-0.0478,-0.0451,-0.0449,-0.0447,-0.0437,-0.0433,-0.0473,-0.0473,-0.0473,-0.0473,0,-0.0747,-0.0725,-0.0712,-0.068,-0.0663,-0.0642,-0.062,-0.0605,-0.0594,-0.0578,-0.0549,-0.0528,-0.05,-0.0492,-0.0483,-0.0456,-0.0457,-0.0455,-0.0457,-0.0445,-0.0435,-0.0431,-0.0473,-0.0473,-0.0473,-0.0473,0,0,-0.0748,-0.0703,-0.0699,-0.0682,-0.0649,-0.0632,-0.0609,-0.058,-0.0566,-0.0544,-0.0523,-0.0491,-0.0488,-0.0472,-0.046,-0.0445,-0.0426,-0.0444,-0.0443,-0.0439,-0.0392,-0.0392,-0.0388,-0.0421,-0.042,-0.042,-0.0393,0,-0.0733,-0.0691,-0.0673,-0.0639,-0.0616,-0.0601,-0.058,-0.0558,-0.0541,-0.0519,-0.0502,-0.0478,-0.0477,-0.0467,-0.0451,-0.0432,-0.0416,-0.0434,-0.04,-0.0399,-0.0404,-0.0383,-0.0384,-0.036,-0.0389,-0.0389,-0.0388,0,-0.0711,-0.0686,-0.0649,-0.0615,-0.0605,-0.0587,-0.0558,-0.0538,-0.051,-0.0499,-0.0479,-0.0467,-0.0441,-0.0445,-0.0407,-0.042,-0.0405,-0.0393,-0.0391,-0.0386,-0.0392,-0.0375,-0.0352,-0.0347,-0.0382,-0.0383,-0.0383,0,-0.0712,-0.0669,-0.0641,-0.0627,-0.0588,-0.0575,-0.0559,-0.0532,-0.0514,-0.0488,-0.0476,-0.0449,-0.0433,-0.0411,-0.0391,-0.0397,-0.0354,-0.0357,-0.0342,-0.0343,-0.0333,-0.0334,-0.0305,-0.0327,-0.0327,-0.0327,-0.0327,0,-0.0696,-0.0674,-0.064,-0.0623,-0.0596,-0.0574,-0.0548,-0.053,-0.0505,-0.0483,-0.0469,-0.0448,-0.0423,-0.0399,-0.0383,-0.0352,-0.0346,-0.0335,-0.0331,-0.0335,-0.0336,-0.0324,-0.0325,-0.0326,-0.0326,-0.0327,-0.0327,0,-0.0694,-0.067,-0.0637,-0.0602,-0.0592,-0.0574,-0.0543,-0.0524,-0.0506,-0.0477,-0.0469,-0.0441,-0.0411,-0.0389,-0.0351,-0.034,-0.0306,-0.0303,-0.0315,-0.0312,-0.0297,-0.0298,-0.0258,-0.025,-0.028,-0.0279,-0.0279,0,-0.0685,-0.0666,-0.0627,-0.061,-0.0593,-0.0567,-0.0548,-0.0525,-0.0506,-0.0471,-0.0456,-0.0425,-0.0398,-0.0351,-0.0326,-0.0296,-0.0291,-0.0279,-0.0286,-0.029,-0.0287,-0.0287,-0.0284,-0.0277,-0.0277,-0.0277,-0.0277,0,-0.067,-0.0658,-0.0632,-0.0599,-0.0577,-0.0551,-0.0525,-0.0512,-0.0484,-0.0463,-0.0431,-0.041,-0.0369,-0.0337,-0.0304,-0.0286,-0.0275,-0.0274,-0.0269,-0.0272,-0.0278,-0.0272,-0.0309,-0.0275,-0.0276,-0.0276,-0.0276,-0.0276,-0.0662,-0.0643,-0.0612,-0.0582,-0.0559,-0.0534,-0.0513,-0.0491,-0.0463,-0.0427,-0.0415,-0.0381,-0.0351,-0.0304,-0.0286,-0.0258,-0.0258,-0.0251,-0.0249,-0.0247,-0.0245,-0.0284,-0.0252,-0.0252,-0.0252,-0.0252,-0.0252,0,-0.0644,-0.0622,-0.0595,-0.0557,-0.0532,-0.0523,-0.0493,-0.0472,-0.0442,-0.0415,-0.0387,-0.0349,-0.0316,-0.0288,-0.0254,-0.0237,-0.0231,-0.0229,-0.0229,-0.0224,-0.0249,-0.0255,-0.0234,-0.0234,-0.0234,-0.0234,-0.0234,-0.0234,-0.0632,-0.0599,-0.0583,-0.0537,-0.0515,-0.0481,-0.0463,-0.0439,-0.0416,-0.0373,-0.0345,-0.0326,-0.0297,-0.026,-0.023,-0.0222,-0.0209,-0.0207,-0.0198,-0.0221,-0.0223,-0.0225,-0.0231,-0.0205,-0.0205,-0.0176,-0.0175,-0.0175]}]]